• Join FlightAware (Why Join?)
  • Login
  • US Flag 
08:36PM EDT


 

Airport Tracker/Info


-or-


 

Live Flight TrackerFlight Track Log ✈ FLG3729 ✈ 23-Apr-2013 ✈ KALB - KDTW

Flight Track Log - Related Links

Times and Time Zones

All times are in EDT time to prevent confusion due to time zone crossing. See the FLG3729 flight status page for this flight to view local times or setup timezone preferences in your user account.

Time Position Orientation Groundspeed Altitude Reporting Facility
EDT Latitude Longitude Course Direction KTS MPH feet Rate Location/Type
05:53AM 42.7983 -73.8208 304° West 196 226 2,900  Level Boston Center
05:53AM 42.8253 -73.8442 328° Northwest 239 275 3,800 2,280 Climbing Boston Center
05:54AM 42.8519 -73.8731 322° Northwest 267 307 5,000 2,880 Climbing Boston Center
05:54AM 42.8828 -73.8994 328° Northwest 301 346 6,700 2,760 Climbing Boston Center
05:55AM 42.8104 -74.1724 281° West  Level FlightAware Approximate
05:55AM 42.9428 -73.9519 327° Northwest 301 346 9,200  Level Boston Center
05:56AM 42.8287 -74.3009 281° West  Level FlightAware Approximate
05:56AM 43.0250 -74.0247 327° Northwest 309 356 11,000  Level Boston Center
05:57AM 42.8493 -74.4287 283° West  Level FlightAware Approximate
05:57AM 43.0842 -74.1172 311° West 363 418 12,300  Level Boston Center
05:58AM 42.8765 -74.5529 304° West  Level FlightAware Approximate
05:58AM 43.0922 -74.2739 274° West 367 422 14,100  Level Boston Center
05:59AM 43.0983 -74.4106 274° West 389 448 15,600 1,560 Climbing Boston Center
06:00AM 43.1056 -74.5758 273° West 399 459 17,300 1,260 Climbing Boston Center
06:01AM 43.1114 -74.7125 273° West 409 471 18,200 1,020 Climbing Boston Center
06:02AM 43.1164 -74.8664 273° West 409 471 19,400 1,080 Climbing Boston Center
06:03AM 43.1233 -75.0258 273° West 404 465 20,400 960 Climbing Boston Center
06:04AM 43.1303 -75.1828 274° West 410 472 21,400 1,020 Climbing Boston Center
06:05AM 43.1347 -75.3422 272° West 416 479 22,500 1,020 Climbing Boston Center
06:06AM 43.1403 -75.5219 272° West 423 487 23,500 960 Climbing Boston Center
06:07AM 43.1464 -75.6817 273° West 423 487 24,500 960 Climbing Boston Center
06:08AM 43.1500 -75.8411 272° West 423 487 25,500 960 Climbing Boston Center
06:09AM 43.1556 -76.0011 273° West 423 487 26,500 960 Climbing Boston Center
06:10AM 43.1608 -76.1608 273° West 423 487 27,500 480 Climbing Boston Center
06:12AM 43.1428 -76.4456 265° West 445 512 28,000 120 Climbing Cleveland Center
06:13AM 43.1258 -76.6119 262° West 445 512 28,000  Level Cleveland Center
06:14AM 43.1119 -76.7636 263° West 445 512 28,000  Level Cleveland Center
06:15AM 43.0967 -76.9294 263° West 445 512 28,000  Level Cleveland Center
06:16AM 43.0808 -77.0981 263° West 445 512 28,000  Level Cleveland Center
06:17AM 43.0669 -77.2639 264° West 445 512 28,000  Level Cleveland Center
06:18AM 43.0508 -77.4322 263° West 445 512 28,000  Level Cleveland Center
06:19AM 43.0364 -77.5950 263° West 445 512 28,000  Level Cleveland Center
06:20AM 43.0197 -77.7606 262° West 445 512 28,000  Level Cleveland Center
06:21AM 43.0028 -77.9203 262° West 445 512 28,000  Level Cleveland Center
06:22AM 42.9875 -78.0828 263° West 445 512 28,000  Level Cleveland Center
06:23AM 42.9700 -78.2422 262° West 440 506 28,000  Level Cleveland Center
06:24AM 42.9528 -78.4217 263° West 440 506 28,000  Level Cleveland Center
06:25AM 42.9369 -78.5811 262° West 435 501 28,000  Level Cleveland Center
06:26AM 42.9167 -78.7433 260° West 435 501 28,000  Level Cleveland Center
06:27AM 42.8939 -78.9028 259° West 430 495 28,000  Level Cleveland Center
06:28AM 42.8711 -79.0619 259° West 430 495 28,000  Level Cleveland Center
06:29AM 42.8442 -79.2269 257° West 430 495 28,000  Level Cleveland Center
06:30AM 42.8228 -79.3858 260° West 430 495 28,000  Level Cleveland Center
06:31AM 42.8014 -79.5447 260° West 430 495 28,000  Level Cleveland Center
06:32AM 42.7758 -79.7064 258° West 430 495 28,000  Level Cleveland Center
06:33AM 42.7539 -79.8706 260° West 430 495 28,000  Level Cleveland Center
06:34AM 42.7422 -80.0206 264° West 436 502 28,000  Level Cleveland Center
06:35AM 42.7389 -80.1847 268° West 442 509 28,000  Level Cleveland Center
06:36AM 42.7308 -80.3431 266° West 435 501 28,000  Level Cleveland Center
06:37AM 42.7250 -80.5069 267° West 435 501 28,000  Level Cleveland Center
06:38AM 42.7164 -80.6681 266° West 435 501 28,000 -600 Level Cleveland Center
06:39AM 42.7081 -80.8319 266° West 440 506 26,900 -1,560 Descending Cleveland Center
06:40AM 42.6950 -80.9872 264° West 435 501 24,900 -1,500 Descending Cleveland Center
06:41AM 42.6797 -81.1453 263° West 429 494 24,000 -480 Descending Cleveland Center
06:42AM 42.6581 -81.3089 260° West 418 481 24,000  Level Cleveland Center
06:43AM 42.6403 -81.4608 261° West 408 470 24,000  Level Cleveland Center
06:44AM 42.6222 -81.6103 261° West 408 470 24,000 -900 Level Cleveland Center
06:45AM 42.6064 -81.7594 262° West 413 475 22,200 -1,800 Descending Cleveland Center
06:46AM 42.5903 -81.8833 260° West 395 455 20,400 -1,800 Descending Cleveland Center
06:47AM 42.5742 -82.0267 261° West 389 448 18,600 -1,740 Descending Cleveland Center
06:48AM 42.5556 -82.1644 260° West 389 448 17,000 -1,860 Descending Cleveland Center
06:49AM 42.5414 -82.2825 261° West 367 422 15,400 -1,920 Descending Cleveland Center
06:49AM 42.5392 -82.2992 260° West 384 442 15,100 -1,920 Descending Cleveland Center
06:50AM 42.5247 -82.4256 261° West 345 397 13,300 -1,740 Descending Cleveland Center
06:51AM 42.5103 -82.5381 260° West 340 391 12,100 -1,080 Descending Cleveland Center
06:51AM 42.5039 -82.5517 238° Southwest 352 405 12,100 -840 Level Cleveland Center
06:52AM 42.4686 -82.6606 246° West 347 399 11,300 -1,020 Descending Cleveland Center
06:53AM 42.4372 -82.7692 249° West 284 327 10,300 -1,440 Descending Cleveland Center
06:54AM 42.4311 -82.8703 265° West 272 313 8,400 -1,620 Descending Cleveland Center
06:55AM 42.4250 -82.9714 265° West 265 305 7,100 -780 Descending Cleveland Center
06:56AM 42.4189 -83.0583 265° West 259 298 7,000 -120 Descending Cleveland Center
06:56AM 42.4164 -83.0750 259° West 269 310 7,000 -540 Level Cleveland Center
06:57AM 42.4025 -83.1419 254° West 208 239 6,500 -720 Descending Cleveland Center
06:57AM 42.3981 -83.1503 234° Southwest 243 280 6,300 -1,440 Descending Cleveland Center
06:58AM 42.3781 -83.2142 247° West 188 216 4,900 -1,500 Descending Cleveland Center
06:59AM 42.3333 -83.2517 212° Southwest 159 183 3,400 -1,380 Descending Cleveland Center